GW7329 Weather Reports


time (UTC)temp
C
wind
direction
speed
KPH
gust
KPH
rain 1hr
cm
rain 24hr
cm
rain mn
cm
humidity
%
barometer
mb
20260906110536 18 0.0 0.0 0.00 0.00 0.00 98 1016.0
20260906105517 18 0.0 0.0 0.00 0.00 0.00 98 1015.7
20260906104516 17 0.0 0.0 0.00 0.00 0.00 98 1016.1
20260906103516 17 0.0 0.0 0.00 0.00 0.00 98 1015.7
20260906102517 17 0.0 0.0 0.00 0.00 0.00 98 1015.5
20260906101516 17 0.0 0.0 0.00 0.00 0.00 98 1015.4
20260906100516 17 0.0 0.0 0.00 0.00 0.00 97 1015.3
20260906095516 17 0.0 0.0 0.00 0.00 0.00 97 1015.2
20260906094516 17 0.0 0.0 0.00 0.00 0.00 97 1015.4
20260906093516 17 0.0 0.0 0.00 0.00 0.00 97 1015.5
20260906092536 17 0.0 0.0 0.00 0.00 0.00 97 1015.5
20260906091536 17 0.0 0.0 0.00 0.00 0.00 97 1015.7
20260906090516 17 0.0 0.0 0.00 0.00 0.00 97 1015.7
20260906085516 17 0.0 0.0 0.00 0.00 0.00 97 1015.5
20260906084536 17 0.0 0.0 0.00 0.00 0.00 96 1015.2
20260906083516 17 0.0 0.0 0.00 0.00 0.00 97 1015.1
20260906082516 17 0.0 0.0 0.00 0.00 0.00 97 1014.9
20260906081516 17 0.0 0.0 0.00 0.00 0.00 97 1014.7
20260906080555 17 0.0 0.0 0.00 0.00 0.00 96 1014.7
20260906075516 17 0.0 0.0 0.00 0.00 0.00 96 1014.6
20260906074536 17 0.0 0.0 0.00 0.00 0.00 96 1014.6
20260906073516 17 0.0 0.0 0.00 0.00 0.00 96 1014.5
20260906072516 18 0.0 0.0 0.00 0.00 0.00 96 1014.5
20260906071516 18 0.0 0.0 0.00 0.00 0.00 96 1014.4
20260906070516 18 0.0 0.0 0.00 0.00 0.00 96 1014.7
20260906065516 18 0.0 0.0 0.00 0.00 0.00 96 1014.7
20260906064516 18 0.0 0.0 0.00 0.00 0.00 96 1014.8
20260906063516 18 0.0 0.0 0.00 0.00 0.00 95 1014.9
20260906062516 19 0.0 0.0 0.00 0.00 0.00 95 1015.0
20260906061516 19 0.0 0.0 0.00 0.00 0.00 95 1015.0
20260906060516 19 0.0 0.0 0.00 0.00 0.00 95 1015.1
20260906055536 19 0.0 0.0 0.00 0.00 0.00 95 1015.0
20260906054516 19 0.0 0.0 0.00 0.00 0.00 93 1015.0
20260906053526 19 0.0 0.0 0.00 0.00 0.00 93 1014.9
20260906052516 19 0.0 0.0 0.00 0.00 0.00 92 1014.9
20260906051516 19 0.0 0.0 0.00 0.00 0.00 91 1015.2
20260906050516 19 0.0 0.0 0.00 0.00 0.00 91 1015.3
20260906045516 19 0.0 0.0 0.00 0.00 0.00 90 1015.4
20260906044516 20 0.0 0.0 0.00 0.00 0.00 90 1015.6
20260906043555 20 0.0 0.0 0.00 0.00 0.00 89 1015.9
20260906042516 20 0.0 0.0 0.00 0.00 0.00 89 1015.9
20260906041516 19 0.0 3.2 0.00 0.00 0.00 91 1015.8
20260906040516 18 0.0 0.0 0.00 0.00 0.00 92 1015.6
20260906035516 19 0.0 0.0 0.00 0.00 0.00 92 1015.7
20260906034516 19 0.0 0.0 0.00 0.00 0.00 91 1016.0
20260906033516 19 0.0 0.0 0.00 0.00 0.00 90 1016.1
20260906032535 19 0.0 0.0 0.00 0.00 0.00 89 1016.3
20260906031516 20 0.0 0.0 0.00 0.00 0.00 88 1015.9
20260906030515 20 0.0 0.0 0.00 0.00 0.00 88 1016.1
20260906025516 20 0.0 0.0 0.00 0.00 0.00 88 1016.1
20260906024516 20 0.0 0.0 0.00 0.00 0.00 88 1016.0
20260906023515 20 0.0 0.0 0.00 0.00 0.00 88 1015.8
20260906022535 20 0.0 0.0 0.00 0.00 0.00 87 1015.9
20260906021515 20 0.0 1.6 0.00 0.00 0.00 86 1015.5
20260906020516 20 0.0 1.6 0.00 0.00 0.00 86 1015.6
20260906015515 20 0.0 0.0 0.00 0.00 0.00 85 1015.5
20260906014515 21 0.0 0.0 0.00 0.00 0.00 84 1015.3
20260906013516 21 0.0 0.0 0.00 0.00 0.00 84 1015.3
20260906012516 21 0.0 0.0 0.00 0.00 0.00 82 1015.4
20260906011515 22 0.0 0.0 0.00 0.00 0.00 79 1015.4
20260906010516 22 0.0 0.0 0.00 0.00 0.00 78 1015.2
20260906005515 22 0.0 1.6 0.00 0.00 0.00 77 1015.1
20260906004535 22 0.0 1.6 0.00 0.00 0.00 76 1014.9
20260906003535 23 0.0 1.6 0.00 0.00 0.00 76 1014.8
20260906002515 23 0.0 1.6 0.00 0.00 0.00 75 1014.8
20260906001515 23 0.0 1.6 0.00 0.00 0.00 75 1014.3
20260906000515 23 0.0 6.4 0.00 0.00 0.00 74 1014.4
20260905235515 23 0.0 1.6 0.00 0.00 0.00 74 1014.1
20260905234633 23 0.0 1.6 0.00 0.00 0.00 74 1014.0
20260905233516 23 0.0 3.2 0.00 0.00 0.00 73 1013.9
20260905232515 24 0.0 3.2 0.00 0.00 0.00 72 1014.1
20260905231515 25 0.0 6.4 0.00 0.00 0.00 71 1014.3
20260905230535 25 0.0 1.6 0.00 0.00 0.00 69 1014.2
20260905225515 26 0.0 1.6 0.00 0.00 0.00 68 1014.6
20260905224515 26 0.0 0.0 0.00 0.00 0.00 66 1014.4
20260905223515 27 0.0 1.6 0.00 0.00 0.00 64 1014.6
20260905222515 28 0.0 3.2 0.00 0.00 0.00 62 1015.0
20260905221535 28 0.0 0.0 0.00 0.00 0.00 60 1014.9
20260905220515 28 0.0 4.8 0.00 0.00 0.00 60 1014.7
20260905215517 28 0.0 1.6 0.00 0.00 0.00 59 1014.8
20260905214517 29 0.0 1.6 0.00 0.00 0.00 58 1014.8
20260905213517 29 315 1.6 8.0 0.00 0.00 0.00 58 1014.7
20260905212517 29 270 1.6 4.8 0.00 0.00 0.00 58 1014.7
20260905211517 28 248 1.6 6.4 0.00 0.00 0.00 57 1014.4
20260905210517 29 315 1.6 4.8 0.00 0.00 0.00 56 1014.4
20260905205517 30 225 1.6 3.2 0.00 0.00 0.00 55 1014.4
20260905204517 29 0.0 3.2 0.00 0.00 0.00 56 1014.5
20260905203517 28 338 3.2 9.7 0.00 0.00 0.00 56 1014.4
20260905202517 28 90 3.2 8.0 0.00 0.00 0.00 57 1014.4
20260905201517 28 248 1.6 12.9 0.00 0.00 0.00 60 1014.3
20260905200517 27 315 3.2 11.3 0.00 0.00 0.00 60 1014.1
20260905195517 28 315 3.2 8.0 0.00 0.03 0.00 62 1014.2
20260905194517 27 315 4.8 11.3 0.00 0.03 0.00 61 1013.7
20260905193517 27 293 4.8 25.7 0.00 0.03 0.00 62 1013.8
20260905192517 27 113 1.6 12.9 0.00 0.03 0.00 66 1013.9
20260905191517 27 338 4.8 14.5 0.00 0.03 0.00 69 1014.0
20260905190517 26 293 1.6 4.8 0.00 0.03 0.00 73 1013.8
20260905185517 26 338 1.6 6.4 0.00 0.03 0.00 74 1014.0
20260905184536 26 315 3.2 11.3 0.00 0.03 0.00 73 1013.9
20260905183517 26 338 3.2 8.0 0.00 0.03 0.00 75 1014.2
20260905182517 25 338 3.2 9.7 0.00 0.03 0.00 77 1014.2
20260905181517 24 315 3.2 16.1 0.00 0.03 0.00 79 1014.0
20260905180536 23 248 3.2 12.9 0.00 0.03 0.00 79 1014.0
20260905175556 23 315 1.6 4.8 0.00 0.03 0.00 78 1014.2
20260905174536 23 315 1.6 3.2 0.00 0.03 0.00 79 1014.7
20260905173517 23 315 3.2 11.3 0.00 0.03 0.00 78 1015.0
20260905172517 24 293 1.6 6.4 0.00 0.03 0.00 78 1015.3
20260905171517 25 315 1.6 9.7 0.00 0.03 0.00 77 1015.5
20260905170517 25 23 1.6 3.2 0.00 0.03 0.00 77 1015.8
20260905165517 25 315 1.6 12.9 0.00 0.03 0.00 77 1016.1
20260905164517 26 315 3.2 8.0 0.00 0.03 0.00 77 1016.5
20260905163517 26 338 1.6 4.8 0.00 0.03 0.00 76 1016.6
20260905162517 27 315 3.2 11.3 0.00 0.03 0.00 74 1016.5
20260905161517 26 23 1.6 16.1 0.00 0.03 0.00 76 1016.4
20260905160517 27 315 3.2 19.3 0.00 0.03 0.00 73 1016.8
20260905155517 27 90 3.2 12.9 0.00 0.03 0.00 74 1016.7
20260905154517 28 338 3.2 8.0 0.00 0.03 0.00 71 1016.8
20260905153517 28 315 1.6 6.4 0.00 0.03 0.00 71 1017.0
20260905152517 29 338 1.6 8.0 0.00 0.03 0.00 68 1017.0
20260905151517 29 113 1.6 8.0 0.00 0.03 0.00 70 1017.2
20260905150516 28 315 1.6 3.2 0.00 0.03 0.00 73 1017.1
20260905145517 28 315 3.2 11.3 0.00 0.03 0.00 72 1016.8
20260905144516 27 338 1.6 4.8 0.00 0.03 0.00 74 1016.7
20260905143516 27 315 3.2 19.3 0.00 0.03 0.00 76 1016.9
20260905142517 26 315 3.2 11.3 0.00 0.03 0.00 76 1016.6
20260905141517 26 293 1.6 12.9 0.00 0.03 0.00 78 1016.7
20260905140536 26 315 1.6 8.0 0.00 0.03 0.00 80 1016.4
20260905135517 25 0.0 3.2 0.00 0.03 0.00 82 1016.3
20260905134517 24 0.0 3.2 0.00 0.03 0.00 84 1016.3
20260905133516 24 0.0 1.6 0.00 0.03 0.00 83 1016.4
20260905132516 24 0.0 3.2 0.00 0.03 0.00 84 1016.5
20260905131517 23 0.0 1.6 0.00 0.03 0.00 84 1016.4
20260905130536 23 0.0 1.6 0.00 0.03 0.00 83 1016.4
20260905125517 23 0.0 1.6 0.00 0.03 0.00 83 1016.4
20260905124516 23 0.0 1.6 0.00 0.03 0.00 85 1016.6
20260905123555 22 0.0 3.2 0.00 0.03 0.00 86 1016.3
20260905122516 22 0.0 0.0 0.00 0.03 0.00 87 1016.2
20260905121516 21 0.0 0.0 0.00 0.03 0.00 88 1016.1
20260905120516 21 0.0 0.0 0.00 0.03 0.00 90 1015.9
20260905115516 20 0.0 0.0 0.00 0.03 0.00 90 1015.8
20260905114536 20 0.0 0.0 0.00 0.03 0.00 91 1016.0
20260905113516 20 0.0 0.0 0.00 0.03 0.00 91 1015.9
20260905112516 20 0.0 0.0 0.00 0.03 0.00 91 1015.9
20260905111516 20 0.0 0.0 0.00 0.03 0.00 91 1015.8